Auburn, IN

1:28 AM EDT on July 21, 2017 (GMT -0400)
Auburn

Weather History for KGWB - February, 2012

Change the Weather History Date:

Wednesday, February 22, 2012

  Actual Average (KFWA) Record (KFWA)
Temperature  
Mean Temperature 38 °F -  
Max Temperature 42 °F 42 °F 67 °F (1922)
Min Temperature 35 °F 26 °F -9 °F (1963)
Degree Days  
Heating Degree Days 26    
Moisture  
Dew Point 33 °F    
Average Humidity 82    
Maximum Humidity 93    
Minimum Humidity 66    
Precipitation  
Precipitation 0.00 in - - ()
Sea Level Pressure  
Sea Level Pressure 29.58 in    
Wind  
Wind Speed 6 mph (West)    
Max Wind Speed 9 mph    
Max Gust Speed -    
Visibility 10 miles    
Events Rain    
Averages and records for this station are not official NWS values.
T = Trace of Precipitation, MM = Missing Value Source: NWS Daily Summary

Daily Weather History Graph

Daily Weather History Graph

Search for Another Location

Airport or City:

Trip Planner

Search our weather history database for the weather conditions in past years. The results will help you decide how hot, cold, wet, or windy it might be!

Date:

Astronomy

Feb. 22, 2012 Rise Set
Actual Time 7:26 AM EST 6:22 PM EST
Civil Twilight 6:58 AM EST 6:50 PM EST
Nautical Twilight 6:25 AM EST 7:22 PM EST
Astronomical Twilight 5:53 AM EST 7:54 PM EST
Moon 7:22 AM EST (2/22) 7:29 PM EST (2/22)
Length of Visible Light 11h 52m
Length of Day
10h 56m
New Moon, 1% of the Moon is Illuminated
Feb 22
New Moon
Feb 29
First Quarter
Mar 8
Full
Mar 14
Last Quarter
Mar 22
New

Hourly Weather History & Observations

Time (EST) Temp. Windchill Dew Point Humidity Pressure Visibility Wind Dir Wind Speed Gust Speed Precip Events Conditions
12:15 AM 39.2 °F 33.0 °F 35.6 °F 87% 29.73 in 10.0 mi WSW 9.2 mph - N/A   Scattered Clouds
12:35 AM 39.2 °F 33.0 °F 33.8 °F 81% 29.72 in 10.0 mi SW 9.2 mph - N/A   Clear
12:55 AM 37.4 °F 31.4 °F 33.8 °F 87% 29.72 in 10.0 mi SW 8.1 mph - N/A   Scattered Clouds
1:15 AM 37.4 °F 31.4 °F 33.8 °F 87% 29.71 in 10.0 mi SW 8.1 mph - N/A   Mostly Cloudy
1:35 AM 37.4 °F 31.4 °F 33.8 °F 87% 29.71 in 10.0 mi SW 8.1 mph - N/A   Scattered Clouds
1:55 AM 37.4 °F 32.1 °F 32.0 °F 81% 29.71 in 10.0 mi SW 6.9 mph - N/A   Mostly Cloudy
2:15 AM 37.4 °F 32.8 °F 32.0 °F 81% 29.71 in 10.0 mi SW 5.8 mph - N/A   Scattered Clouds
2:35 AM 37.4 °F 33.8 °F 32.0 °F 81% 29.71 in 10.0 mi SW 4.6 mph - N/A   Clear
2:55 AM 37.4 °F 32.8 °F 32.0 °F 81% 29.70 in 10.0 mi SW 5.8 mph - N/A   Clear
3:15 AM 37.4 °F 32.8 °F 32.0 °F 81% 29.69 in 10.0 mi SW 5.8 mph - N/A   Scattered Clouds
3:35 AM 37.4 °F 32.8 °F 32.0 °F 81% 29.69 in 10.0 mi SW 5.8 mph - N/A   Scattered Clouds
3:55 AM 37.4 °F 32.8 °F 32.0 °F 81% 29.68 in 10.0 mi SW 5.8 mph - N/A   Mostly Cloudy
4:15 AM 37.4 °F 31.4 °F 32.0 °F 81% 29.68 in 10.0 mi SW 8.1 mph - N/A   Overcast
4:35 AM 37.4 °F 30.8 °F 32.0 °F 81% 29.68 in 10.0 mi SW 9.2 mph - N/A   Overcast
4:55 AM 37.4 °F 30.8 °F 32.0 °F 81% 29.67 in 10.0 mi SW 9.2 mph - N/A   Overcast
5:15 AM 35.6 °F 29.9 °F 32.0 °F 87% 29.68 in 10.0 mi SW 6.9 mph - N/A   Overcast
5:35 AM 35.6 °F 30.7 °F 32.0 °F 87% 29.67 in 10.0 mi WSW 5.8 mph - N/A   Mostly Cloudy
5:55 AM 35.6 °F 30.7 °F 32.0 °F 87% 29.67 in 10.0 mi WSW 5.8 mph - N/A   Overcast
6:15 AM 35.6 °F 30.7 °F 32.0 °F 87% 29.66 in 10.0 mi SW 5.8 mph - N/A   Overcast
6:35 AM 35.6 °F 32.8 °F 32.0 °F 87% 29.65 in 10.0 mi SSW 3.5 mph - N/A   Overcast
6:55 AM 35.6 °F 31.7 °F 32.0 °F 87% 29.65 in 10.0 mi SSW 4.6 mph - N/A   Overcast
7:15 AM 35.6 °F 30.7 °F 32.0 °F 87% 29.64 in 10.0 mi SSW 5.8 mph - N/A   Overcast
7:55 AM 35.6 °F 32.8 °F 32.0 °F 87% 29.64 in 10.0 mi SW 3.5 mph - N/A   Overcast
8:15 AM 35.6 °F - 32.0 °F 87% 29.63 in 10.0 mi Calm Calm - N/A   Mostly Cloudy
8:35 AM 35.6 °F - 32.0 °F 87% 29.63 in 10.0 mi Calm Calm - N/A   Mostly Cloudy
8:55 AM 35.6 °F 32.8 °F 32.0 °F 87% 29.63 in 10.0 mi West 3.5 mph - N/A   Scattered Clouds
9:15 AM 35.6 °F 32.8 °F 32.0 °F 87% 29.62 in 10.0 mi West 3.5 mph - N/A   Mostly Cloudy
9:35 AM 37.4 °F - 32.0 °F 81% 29.60 in 10.0 mi Calm Calm - N/A   Mostly Cloudy
9:55 AM 37.4 °F - 32.0 °F 81% 29.60 in 10.0 mi Calm Calm - N/A   Scattered Clouds
10:15 AM 37.4 °F - 32.0 °F 81% 29.59 in 10.0 mi Calm Calm - N/A   Scattered Clouds
10:35 AM 41.0 °F 39.0 °F 32.0 °F 70% 29.59 in 10.0 mi WSW 3.5 mph - N/A   Scattered Clouds
10:55 AM 41.0 °F 39.0 °F 32.0 °F 70% 29.58 in 10.0 mi WSW 3.5 mph - N/A   Scattered Clouds
11:15 AM 41.0 °F - 32.0 °F 70% 29.57 in 10.0 mi Calm Calm - N/A   Mostly Cloudy
11:35 AM 41.0 °F 39.0 °F 32.0 °F 70% 29.56 in 10.0 mi West 3.5 mph - N/A   Overcast
11:55 AM 41.0 °F - 32.0 °F 70% 29.54 in 10.0 mi Calm Calm - N/A   Mostly Cloudy
12:15 PM 42.8 °F - 32.0 °F 66% 29.53 in 10.0 mi Calm Calm - N/A   Mostly Cloudy
12:35 PM 42.8 °F - 32.0 °F 66% 29.53 in 10.0 mi Calm Calm - N/A   Mostly Cloudy
12:55 PM 42.8 °F - 32.0 °F 66% 29.51 in 10.0 mi Calm Calm - N/A   Overcast
1:15 PM 42.8 °F - 32.0 °F 66% 29.51 in 10.0 mi Calm Calm - N/A   Overcast
1:35 PM 42.8 °F - 32.0 °F 66% 29.49 in 10.0 mi Calm Calm - N/A   Light Drizzle
1:55 PM 42.8 °F 41.1 °F 33.8 °F 70% 29.48 in 10.0 mi North 3.5 mph - N/A   Mostly Cloudy
2:15 PM 41.0 °F 37.1 °F 35.6 °F 81% 29.48 in 10.0 mi NNW 5.8 mph - N/A   Mostly Cloudy
2:35 PM 41.0 °F 36.4 °F 35.6 °F 81% 29.48 in 10.0 mi North 6.9 mph - N/A   Mostly Cloudy
2:55 PM 41.0 °F 37.1 °F 35.6 °F 81% 29.47 in 10.0 mi North 5.8 mph - N/A   Light Drizzle
3:15 PM 41.0 °F 37.1 °F 35.6 °F 81% 29.47 in 10.0 mi North 5.8 mph - N/A   Mostly Cloudy
3:35 PM 41.0 °F 36.4 °F 35.6 °F 81% 29.46 in 10.0 mi North 6.9 mph - N/A   Scattered Clouds
3:55 PM 39.2 °F 35.0 °F 35.6 °F 87% 29.46 in 10.0 mi North 5.8 mph - N/A   Mostly Cloudy
4:15 PM 39.2 °F 35.0 °F 35.6 °F 87% 29.46 in 10.0 mi North 5.8 mph - N/A   Overcast
4:35 PM 37.4 °F 31.4 °F 35.6 °F 93% 29.44 in 7.0 mi North 8.1 mph - N/A   Light Drizzle
4:55 PM 37.4 °F 32.8 °F 33.8 °F 87% 29.43 in 10.0 mi North 5.8 mph - N/A   Mostly Cloudy
5:15 PM 37.4 °F 33.8 °F 33.8 °F 87% 29.43 in 10.0 mi North 4.6 mph - N/A Rain Light Rain
5:35 PM 37.4 °F 32.8 °F 33.8 °F 87% 29.43 in 7.0 mi NNE 5.8 mph - N/A Rain Rain
5:55 PM 35.6 °F 32.8 °F 33.8 °F 93% 29.43 in 5.0 mi North 3.5 mph - N/A Rain Rain
6:15 PM 35.6 °F 32.8 °F 33.8 °F 93% 29.44 in 7.0 mi NNE 3.5 mph - N/A Rain Rain
6:35 PM 35.6 °F 31.7 °F 33.8 °F 93% 29.43 in 4.0 mi NNE 4.6 mph - N/A Rain Light Rain
6:55 PM 35.6 °F 31.7 °F 33.8 °F 93% 29.44 in 7.0 mi NNE 4.6 mph - N/A   Drizzle
7:15 PM 35.6 °F 32.8 °F 33.8 °F 93% 29.44 in 5.0 mi NNE 3.5 mph - N/A   Drizzle
7:35 PM 35.6 °F 31.7 °F 33.8 °F 93% 29.45 in 5.0 mi NNE 4.6 mph - N/A   Light Drizzle
7:55 PM 35.6 °F 31.7 °F 33.8 °F 93% 29.44 in 7.0 mi ENE 4.6 mph - N/A   Overcast
8:15 PM 33.8 °F 30.8 °F 33.8 °F 100% 29.44 in 5.0 mi NE 3.5 mph - N/A   Overcast
8:35 PM 33.8 °F - 33.8 °F 100% 29.44 in 5.0 mi Calm Calm - N/A   Drizzle
8:55 PM 33.8 °F - 32.0 °F 93% 29.44 in 4.0 mi Calm Calm - N/A   Mostly Cloudy
9:15 PM 33.8 °F - 32.0 °F 93% 29.44 in 3.0 mi Calm Calm - N/A   Overcast
9:35 PM 33.8 °F - 32.0 °F 93% 29.45 in 3.0 mi Calm Calm - N/A   Scattered Clouds
9:55 PM 33.8 °F 30.8 °F 32.0 °F 93% 29.46 in 2.5 mi SSW 3.5 mph - N/A   Clear
10:15 PM 32.0 °F 26.4 °F 32.0 °F 100% 29.46 in 2.5 mi South 5.8 mph - N/A   Clear
10:35 PM 32.0 °F 28.7 °F 32.0 °F 100% 29.46 in 2.5 mi South 3.5 mph - N/A   Clear
10:55 PM 32.0 °F - 32.0 °F 100% 29.46 in 2.0 mi Calm Calm - N/A   Clear
11:15 PM 32.0 °F 28.7 °F 32.0 °F 100% 29.45 in 0.5 mi South 3.5 mph - N/A Fog Fog
11:35 PM 33.8 °F 29.6 °F 32.0 °F 93% 29.45 in 0.2 mi South 4.6 mph - N/A Fog Fog
11:55 PM 33.8 °F 29.6 °F 32.0 °F 93% 29.45 in 0.2 mi South 4.6 mph - N/A Fog Fog